NOAA 16 DEB, 41072

Orbit data source: Space-Track

NOAA 16 DEB, 41072 is space debris in SSO originally from a launch on Thu, 21 Sep 2000 UTC launched from the Air Force Western Test Range (AFWTR). Debris objects in space refer to the collection of defunct objects orbiting the Earth. Examples of debris include non-operational satellites, rocket bodies, and fragments generated from explosions, collisions, or faulty payload assembly.

Loading next visibility...
Identifier
41072, 2000-055AF
Orbit
SSO
Country
Flag of USUS
Related business
Manufacturer
Unknown
Mission
Spacecraft
Bus & Motor
Unknown
Mass
Unknown
Launch date (UTC)
2000-09-21 (25 years ago)
Launch vehicle
Unknown
Launch site
Air Force Western Test Range (AFWTR)
Object type
Payload
Rocket body
Debris
Shape & HBR
Unknown shape, 0.1 m
Radar Cross Section
Small (<0.1 m²)

Expand to show TLE details & history
Last TLE update: 15 hours ago

TLE from 15 hours ago
0 NOAA 16 DEB
1 41072U 00055AF  25289.10874698  .00000302  00000-0  38304-3 0  9999
2 41072  98.8567  16.2086 0284372  26.2290 335.2941 13.54588597488348
Epoch: 2025-10-16T02:36Z
TLE epoch observation values (Epoch: 2025-10-16T02:36:35.739Z)
Latitude
0.00006°
Longitude
-47.81352°
Altitude
867.261 km
Speed
7.513 km/s
True Right ascension
01h 04m 50s
True Declination
0° 00' 00"
Sunlit
Object was in full shadow at epoch
Visualization orbit readout
Latitude
Unknown
Longitude
Unknown
Altitude
Unknown
Speed
Unknown
Apparent Right ascension
Unknown
Apparent Declination
Unknown
Sunlit
N/A
Visualization observer readout
Local Sidereal Time
12:23:48
Azimuth
Unknown
Elevation
Unknown
Doppler factor
Unknown
Orbital elements
Apogee altitude
1,263.986 km
Perigee altitude
841.363 km
Semi-major axis
7,430.811 km
Eccentricity
0.02844
Inclination
98.8567°
RAAN
16.2086°
Arg. of periapsis
26.229°
True anomaly
333.88686°
Mean anomaly
335.2941°
Eccentric anomaly
334.5951°
Mean motion
3.38835 °/min
Orbital period
106.25 mins
BSTAR
0.00038304
Loading maneuver chart data...
Computing Atmospheric mass density...
Loading historical data...
Loading historical data...
Loading historical data...
Loading historical data...
Loading historical data...
Loading historical data...
Loading historical data...

Documentation

Showing up to 5 results
|